NOAA 16 DEB

Satellite information

Favourite Embed

Satellite Type and Status

DEBRISIN ORBIT

Key statistics

Satellite NOAA 16 DEB at a glance.

Uptime

9158

Days in orbit

Revolutions

≈ 14.3

Per day

Orbit

SSO

Sun Synchronous Orbit

Inclination

98.7

Latest

Satellite identification and parameters

Extended collection of information and parameters for NOAA 16 DEB.

Object identification

Identified? True

Debris? True

Object name: NOAA 16 DEB

International designator: 2000-055ET

Object number (NORAD): 41243

Object ID (CCSDS): 41243

Country: UNITED STATES OF AMERICA (US)

Current information (Y/N): Y

RCS size: SMALL

Orbital parameters

Period: 100.952 minutes

Inclination: 98.7367 deg

SMA: 7181.877 km

Apoapsis: 806.075 km

Periapsis: 801.41 km

RAAN: 8.0346 deg

Eccentricy: 0.00032474

Argument of periapsis: 74.5153 deg

Mean anomaly: 285.6385 deg

Mean motion: 14.26414665 rev/day

Mean motion (dot): 0.00004275 rev/day2

B* drag term: 0.00179488 1/REarth

Two-line elements (TLE)

Creation date: Oct. 16, 2025, 6:34 p.m.

Reference frame: TEME

Reference center: EARTH

Epoch: Oct. 16, 2025, 4:18 a.m. UTC

TLE line 0: 0 NOAA 16 DEB

TLE line 1: 1 41243U 00055ET 25289.17916966 .00004275 00000-0 17949-2 0 9995

TLE line 2: 2 41243 98.7367 8.0346 0003247 74.5153 285.6385 14.26414665505330

Live tracking on map

Real-time ground track for satellite NOAA 16 DEB.

In-orbit conjunctions

A list of the most updated potential collisions computed for object NOAA 16 DEB.

Target Orbit TCA Probability of collision Miss distance Type
NOAA 16 DEB SSO 2025-07-10 19:18:48 0.0003561568 130.0 (m) DEBRIS
CZ-6A DEB LEO 2025-03-07 08:47:45 0.0002886447 174.0 (m) DEBRIS

Associated space launch

The NOAA K, L and M POES satellites begin the fifth generation of improved environmental monitoring in support of NOAA missions. The instrument payload has significant improvements and additions/deletions. The instrument changes have effected the spacecraft subsystems and data formats.

NOAA 16 DEB was lifted into orbit during the mission ‘Titan II SLV | NOAA 16’, on board a Titan II SLV space rocket.

The launch took place on Sept. 21, 2000, 10:22 a.m. from Space Launch Complex 4W.

For more information about the launch, click the button.

Launch to space Titan II SLV | NOAA 16
Titan II SLV | NOAA 16

Agency: N/A

Status: Launch Successful

Launch date: Sept. 21, 2000, 10:22 a.m. UTC

Rocket: Titan II SLV

Launch pad: Space Launch Complex 4W

Location: Vandenberg SFB, CA, USA

...

Latest news about this satellite

There are no fresh news available about this satellite. Check back as we update our databases every day.


Newsletter sign-up

Weekly statistics, charts and insights to help you stay on top of the space industry.